DELTA 1 DEB, 21384

Orbit data source: Space-Track

DELTA 1 DEB, 21384 is space debris in SSO originally from a launch on Thu, 12 Jun 1975 UTC launched from the Air Force Western Test Range (AFWTR). Debris objects in space refer to the collection of defunct objects orbiting the Earth. Examples of debris include non-operational satellites, rocket bodies, and fragments generated from explosions, collisions, or faulty payload assembly.

Loading next visibility...
Identifier
21384, 1975-052DE
Orbit
SSO
Country
Flag of USUS
Related business
Manufacturer
Unknown
Mission
Spacecraft
Bus & Motor
Unknown
Mass
Unknown
Launch date (UTC)
1975-06-12 (51 years ago)
Launch vehicle
Unknown
Launch site
Air Force Western Test Range (AFWTR)
Object type
Payload
Rocket body
Debris
Shape & HBR
Unknown shape, 0.1 m
Radar Cross Section
Small (<0.1 m²)

Expand to show TLE details & history
Last TLE update: 19 hours ago

TLE from 19 hours ago
0 DELTA 1 DEB
1 21384U 75052DE  25350.54750323  .00000084  00000-0  37757-3 0  9995
2 21384  99.6453 215.1188 0293833 237.4134 249.0197 12.91259703627358
Epoch: 2025-12-16T13:08Z
TLE epoch observation values (Epoch: 2025-12-16T13:08:24.279Z)
Latitude
55.54923°
Longitude
126.85871°
Altitude
1,392.082 km
Speed
7.128 km/s
True Right ascension
03h 17m 33s
True Declination
55° 24' 06"
Sunlit
Object was in full shadow at epoch
Visualization orbit readout
Latitude
Unknown
Longitude
Unknown
Altitude
Unknown
Speed
Unknown
Apparent Right ascension
Unknown
Apparent Declination
Unknown
Sunlit
N/A
Visualization observer readout
Local Sidereal Time
06:26:30
Azimuth
Unknown
Elevation
Unknown
Doppler factor
Unknown
Orbital elements
Apogee altitude
1,519.332 km
Perigee altitude
1,068.473 km
Semi-major axis
7,672.04 km
Eccentricity
0.02938
Inclination
99.6453°
RAAN
215.1188°
Arg. of periapsis
237.4134°
True anomaly
245.91819°
Mean anomaly
249.0197°
Eccentric anomaly
247.46471°
Mean motion
3.22981 °/min
Orbital period
111.46 mins
BSTAR
0.00037757
Loading maneuver chart data...
Computing Atmospheric mass density...

Documentation

Showing up to 5 results
|